Terug naar catalogus

THOR ABLESTAR DEB

ActiefPO
NORAD 1511·DEBRIS·🇺🇸 United States

Gelanceerd Aug 13, 1965 vanaf Vandenberg Space Force Base

Loading…

Volgende Passages (komende 24 uur)

TLE

VersSource: Space-Track

Epoch: Sep 14, 2026, 14:42 UTC

1 01511U 65065D   26257.61278499  .00000036  00000-0  55327-4 0  9993
2 01511  90.0058 211.5035 0067410 317.0895 217.6291 13.34208076972606

Volg THOR ABLESTAR DEB in realtime met AllMySat

Download on the App Store